www.pogodaiklimat.ru

Погода и климат >> Архив погоды >> Антарктида >> Casey Snyder Rocks


ПОГОДА в Casey Snyder Rocks

  • Прогноз погоды в Casey Snyder Rocks
  • Монитор погоды в Casey Snyder Rocks
  • Климат города

АРХИВ ПОГОДЫ в Casey Snyder Rocks

Время (UTC), дата Ветер
(напр.,м/с)
 
Видим.   Явления Облачность Т
(С)
Тd
(С)
f
(%)
Тe
(С)
Тes
(С)
Комфортность P
(гПа)
Po
(гПа)
Тmin
(С)
Tmax
(С)
R
(мм)
R24
(мм)
S
(см)
22 13.09 СВ 7
{16}
н/о н/о -8.5 976.5
23 13.09 С 11
{14}
н/о н/о -9.3 977.7
00 14.09 С 11
{16}
н/о н/о -9.8 977.7
01 14.09 СВ 12
{20}
н/о н/о -10.4 977.7
02 14.09 С 14
{17}
н/о н/о -10.2 978.8
03 14.09 С 12
{19}
н/о н/о -9.6 980.0
04 14.09 0
{14}
н/о н/о -10.2 980.0
06 14.09 0
{10}
н/о н/о -9.1 981.2
07 14.09 0
{8}
н/о 982.4
10 14.09 0
{12}
н/о н/о -9.6 983.5
11 14.09 С 8
{10}
н/о н/о -9.7 983.5
12 14.09 С 6
{10}
н/о н/о -9.8 983.5
13 14.09 С 7
{10}
н/о н/о -9.8 984.7
14 14.09 0
{9}
н/о н/о -9.8 984.7
15 14.09 С 7
{12}
н/о н/о -10.0 984.7
16 14.09 С 8
{11}
н/о н/о -10.4 984.7
17 14.09 С 9
{11}
н/о н/о -10.2 984.7
18 14.09 С 7
{10}
н/о н/о -10.1 984.7
19 14.09 СВ 4
{10}
н/о н/о -9.8 984.7
20 14.09 ЮВ 7
{9}
н/о н/о -9.4 984.7
21 14.09 ЮВ 7
{9}
н/о н/о -9.5 984.7
22 14.09 0
{10}
н/о 984.7
23 14.09 С 6
{8}
н/о н/о -9.7 984.7
00 15.09 С 5
{8}
н/о н/о -10.3 984.7
01 15.09 С 3
{9}
н/о н/о -10.4 983.5
02 15.09 В 3
{8}
н/о н/о -10.9 983.5
04 15.09 Ю 7
{9}
н/о н/о -12.0 982.4
08 15.09 С 8
{11}
н/о н/о -14.0 981.2
09 15.09 С 10
{12}
н/о н/о -14.3 981.2
10 15.09 С 11
{12}
н/о н/о -13.7 981.2
11 15.09 С 11
{13}
н/о н/о -13.5 981.2
12 15.09 0 н/о 981.2
13 15.09 0 н/о
14 15.09 С 12
{15}
н/о н/о -13.9 981.2
15 15.09 С 13
{16}
н/о н/о -14.6 982.4
16 15.09 С 13
{17}
н/о н/о -15.0 982.4
17 15.09 СВ 3
{19}
н/о н/о -15.9 982.4
19 15.09 СВ 2
{17}
н/о н/о -17.0 982.4
20 15.09 0
{19}
н/о н/о -16.7 982.4
21 15.09 0
{23}
н/о н/о -16.7 982.4
22 15.09 В 3
{22}
н/о н/о -16.8 982.4
23 15.09 СВ 7
{21}
н/о н/о -16.8 982.4
00 16.09 СВ 8
{21}
н/о н/о -15.8 983.5
01 16.09 С 11
{21}
н/о н/о -16.7 984.7
02 16.09 С 9
{21}
н/о н/о -15.3 984.7
07 16.09 С 11
{14}
н/о н/о -12.8 985.9
08 16.09 С 10
{16}
н/о н/о -13.1 987.1
09 16.09 С 10
{11}
н/о н/о -13.6 987.1
10 16.09 С 12
{15}
н/о н/о -14.0 987.1
11 16.09 0 н/о н/о -14.5 987.1
12 16.09 0
{17}
н/о 987.1
13 16.09 С 11
{16}
н/о н/о -15.0 988.2
14 16.09 С 12
{15}
н/о н/о -15.1 988.2
15 16.09 С 10
{15}
н/о н/о -14.7 988.2
16 16.09 С 11
{16}
н/о н/о -14.7 988.2
17 16.09 С 10
{12}
н/о н/о -15.1 988.2
18 16.09 С 10
{12}
н/о н/о -14.4 988.2
19 16.09 С 12 н/о н/о -15.9 987.1
20 16.09 С 6
{15}
н/о н/о -16.1 987.1
21 16.09 С 6
{16}
н/о н/о -16.7 987.1
22 16.09 Ю 14
{18}
н/о н/о -17.1 987.1
23 16.09 Ю 13
{17}
н/о н/о -17.5 987.1
00 17.09 В 2
{16}
н/о н/о -16.8 987.1
01 17.09 С 5
{16}
н/о н/о -16.5 987.1
02 17.09 С 8
{12}
н/о н/о -15.9 987.1
03 17.09 С 9
{12}
н/о н/о -15.1 987.1
07 17.09 С 9
{13}
н/о н/о -14.5 988.2
08 17.09 С 8
{10}
н/о н/о -14.5 988.2
09 17.09 С 10
{13}
н/о н/о -14.3 988.2
10 17.09 ЮВ 7
{10}
н/о н/о -14.9 988.2
11 17.09 С 5
{10}
н/о н/о -16.1 988.2
12 17.09 С 5
{8}
н/о н/о -16.1 988.2
13 17.09 С 9
{12}
н/о н/о -15.4 987.1
14 17.09 С 9
{12}
н/о н/о -14.9 987.1
15 17.09 С 7
{9}
н/о н/о -15.3 987.1
16 17.09 0
{9}
н/о 987.1
17 17.09 СВ 6
{13}
н/о н/о -15.0 987.1
18 17.09 С 9
{11}
н/о н/о -15.4 -27 -27 988.2
19 17.09 С 9
{12}
н/о н/о -16.5 988.2
20 17.09 С 10
{15}
н/о н/о -16.1 987.1
21 17.09 С 9
{14}
н/о н/о -16.3 988.2
22 17.09 С 11
{16}
н/о н/о -16.3 988.2
23 17.09 С 11
{16}
н/о н/о -16.6 987.1
00 18.09 СВ 8
{15}
н/о н/о -16.7 987.1
01 18.09 С 10
{16}
н/о н/о -16.5 987.1
02 18.09 СВ 6
{17}
н/о н/о -16.4 988.2
03 18.09 СВ 9
{19}
н/о н/о -16.2 988.2
04 18.09 0
{19}
н/о н/о -15.9 987.1
05 18.09 СВ 7
{16}
н/о н/о -16.1 987.1
07 18.09 СВ 9
{18}
н/о н/о -15.6 987.1
08 18.09 В 5
{17}
н/о н/о -16.0 985.9
09 18.09 СВ 11
{21}
н/о н/о -16.5 985.9
10 18.09 СВ 10
{22}
н/о н/о -16.9 984.7
11 18.09 СВ 9
{21}
н/о н/о -16.4 984.7
12 18.09 СВ 6
{19}
н/о н/о -16.9 984.7
13 18.09 СВ 4 н/о н/о -17.4 984.7
14 18.09 В 5
{14}
н/о н/о -18.0 984.7
15 18.09 СВ 5
{15}
н/о н/о -18.2 984.7
16 18.09 С 9
{16}
н/о н/о -18.6 984.7
17 18.09 0 н/о 983.5
18 18.09 В 8
{18}
н/о н/о -18.6 983.5
20 18.09 СВ 8
{20}
н/о н/о -19.1 982.4
22 18.09 0
{20}
н/о 982.4
23 18.09 ЮВ 8
{15}
н/о н/о -20.0 982.4
00 19.09 ЮВ 10
{16}
н/о н/о -19.8 982.4
02 19.09 ЮВ 11
{16}
н/о н/о -19.2 980.0
01 19.09 ЮВ 9
{16}
н/о н/о -19.7 982.4
03 19.09 0 н/о 980.0
04 19.09 В 7
{21}
н/о н/о -18.3 978.8
05 19.09 0
{19}
н/о 978.8
06 19.09 ЮВ 9
{20}
н/о н/о -17.6 977.7
08 19.09 0
{17}
н/о
10 19.09 ЮВ 6
{14}
н/о н/о -18.7 977.7
11 19.09 0
{13}
н/о 976.5
12 19.09 С 10
{17}
н/о н/о -19.7 976.5
13 19.09 0 н/о 976.5
14 19.09 С 9
{18}
н/о н/о -20.1 975.3
15 19.09 СВ 4
{19}
н/о н/о -20.1 975.3
16 19.09 С 11
{22}
н/о н/о -20.6 974.1
17 19.09 СВ 5
{19}
н/о н/о -21.1 974.1
18 19.09 СВ 5
{19}
н/о н/о -21.1 974.1
19 19.09 В 3
{21}
н/о н/о -21.4 974.1
20 19.09 СВ 4
{17}
н/о н/о -20.4 974.1
21 19.09 В 4
{18}
н/о н/о -21.3 972.9
22 19.09 СВ 4
{17}
н/о н/о -20.6 972.9
23 19.09 0 н/о
00 20.09 Ю 9
{15}
н/о н/о -20.3 972.9
01 20.09 Ю 10
{16}
н/о н/о -19.2 972.9
02 20.09 В 4
{16}
н/о н/о -19.2 972.9
03 20.09 0
{16}
н/о 971.8
04 20.09 Ю 9 н/о н/о -18.7 971.8
06 20.09 0
{12}
н/о 970.6
07 20.09 СВ 4
{13}
н/о н/о -17.1 970.6
08 20.09 0
{13}
н/о 969.4
09 20.09 СВ 7
{17}
н/о н/о -19.3 969.4
11 20.09 Ю 8
{17}
н/о н/о -19.2 969.4
10 20.09 СВ 5
{17}
н/о н/о -19.2 969.4
12 20.09 Ю 12
{19}
н/о н/о -19.7 968.2
13 20.09 Ю 9
{24}
н/о н/о -21.4 967.1
14 20.09 Ю 9
{23}
н/о н/о -21.3 968.2
15 20.09 0
{24}
н/о 968.2
18 20.09 СВ 7
{22}
н/о н/о -22.6 967.1
19 20.09 СВ 6
{23}
н/о н/о -22.8 967.1

 

Местоположение метеостанции Casey Snyder Rocks (Антарктида): широта -66.55 долгота 107.75 высота над уровнем моря 42 м.

В архиве по умолчанию представлена погода в Casey Snyder Rocks за последнюю неделю. Архивные данные за месяц целиком и за предыдущие месяцы, начиная с января 2011 года, Вы можете получить, выбрав интересующий диапазон дат из раскрывающегося списка и нажав кнопку "Ввод!".


*Определитесь, кто Вы:
робот инопланетянин человек

Внимание! Время в таблицах - всемирное. Для получения местного времени необходимо прибавить поправку, которая в Casey Snyder Rocks равна 0 ч.

Смотрите также архив погоды в соседних городах и на ближайших метеорологических станциях:

Погода в Casey (Антарктида) (126 км)
Погода в Casey Skiway South (Антарктида) (138 км)
Погода в Casey (Peterson air) (Антарктида) (152 км)
Погода в Wilkins Runway East (Антарктида) (167 км)
Погода в Oazic Bangera (Антарктида) (313 км)
Погода в Mirnyj (Антарктида) (650 км)
Погода в Dome C II (Антарктида) (1103 км)
Погода в Vostok (Антарктида) (1326 км)

Пояснения к столбцам:

Ветер - указаны скорость ветра в м/с - средняя за 10 мин, порывы в срок и между сроками (в фигурных скобках) и направление, откуда дует ветер: С - северный, СВ - северо-восточный, В - восточный, ЮВ - юго-восточный, Ю - южный, ЮЗ - юго-западный, З - западный, СЗ - северо-западный.
Видимость - горизонтальная дальность видимости в метрах или километрах. При видимости от 1 до 10 км при отсутствии осадков обычно наблюдается дымка, при ухудшении видимости до 1 км и менее - туман. В сухую погоду видимость может ухудшаться дымом, пылью или мглою.
Явления - указаны атмосферные явления, наблюдавшиеся в срок или в последний час перед сроком; фигурными скобками обозначены явления, наблюдавшиеся между сроками (за 1-3 часа до срока); квадратными скобками обозначены град или гололедные отложения с указанием их диаметра в мм.
Облачность - указаны через наклонную черту общая и нижняя облачность в баллах и высота нижней границы облаков в метрах; квадратными скобками обозначены формы облаков: Ci - перистые, Cs - перисто-слоистые, Cc - перисто-кучевые, Ac - высококучевые, As - высокослоистые, Sc - слоисто-кучевые, Ns - слоисто-дождевые, Cu - кучевые, Cb - кучево-дождевые. Подробнее классификацию облаков см. в Атласе облаков (PDF).
T - Температура воздуха - температура, измеренная на высоте 2 м над землей.
Td - Температура точки росы - температура, при понижении до которой содержащийся в воздухе водяной пар достигнет насыщения.
f - Относительная влажность воздуха - влажноcть воздуха, измеренная на высоте 2 м над землей.
Te - Эффективная температура - температура, которую ощущает одетый по сезону человек в тени. Характеристика душности погоды. При расчете учитывается влияние влажности воздуха и скорости ветра на теплоощущения человека.
Tes - Эффективная температура на солнце - температура, которую ощущает человек, с поправкой на солнечный нагрев. Характеристика знойности погоды. Зависит от высоты солнца над горизонтом, облачности и скорости ветра. Ночью, в пасмурную погоду, а также при ветре 12 м/с и более поправка равна нулю.
P - Атмосферное давление - приведенное к уровню моря атмосферное давление.
Po - Атмосферное давление - измеренное на уровне метеостанции атмосферное давление.
Tmin - Минимальная температура - минимум температуры воздуха на высоте 2 м над землей.
Tmax - Максимальная температура - максимум температуры воздуха на высоте 2 м над землей.
R - Количество осадков - Количество выпавших осадков за период времени, мм. При наведении курсора мыши на число - период времени, за который выпало указанное количество осадков.
R24 - Количество осадков - Количество выпавших осадков за 24 часа, мм.
S - Снежный покров - Высота снежного покрова, см. При наведении курсора мыши на число - состояние снежного покрова и степень покрытия местности в баллах.